CUBESAT XI-IV (CO-57)

Last updated on Mon Dec 02 2024 00:03:02 GMT+0000 (Coordinated Universal Time)

1 27848U 03031J 24335.82460399 .00000982 00000+0 45475-3 0 9990 2 27848 98.6809 340.7334 0010365 42.7813 317.4171 14.23054915111231
UTC large
Height (km)
Speed (km/s)
/
Latitude / Longitude
Inclination (degrees)
Orbital Period (minutes)
Azimuth
Elevation
Range (km)
Doppler Factor

Next 0 passes for location: London (51.5072 / 0.1276)

Sorry there are no passes over London.